sat.trackr.live / text

‹ back to catalog

STARLINK-2379

NORAD 47798 · 2021-018M

PAYLOAD ACTIVE UNKNOWN

§ Identity

Operator
Country
US
Launch date
2021-03-11
Launch site
AFETR
Launch vehicle
Mass (kg)
RCS (m²)

Purposes: comms

External: N2YO · Heavens-Above · Gunter

§ Orbital elements

Epoch: 2026-09-20T01:11:01.876992Z

Period
94.01 min
Inclination
53.1612°
Eccentricity
0.0001180
Mean motion
15.31697403 rev/d
Perigee alt
469.9 km
Apogee alt
471.6 km
Semi-major
6,848.9 km
B*
-2.2322e-5
RAAN
54.6299°
Arg perigee
70.6570°
Mean anomaly
289.4559°
Rev number
30,654

§ Raw data

STARLINK-23791 47798U 21018M   26263.04932728 -.00001058  00000+0 -22322-4 0  99912 47798  53.1612  54.6299 0001180  70.6570 289.4559 15.31697403306544

JSON: /api/v1/satellites/47798 · /tle

For live sub-satellite position, see the globe view (requires WebGL).

§ Visibility from observer

Set your observer location to see the next 7 days of passes ≥ 10°. The values pass through the URL so the page stays shareable.

No JS? Fill the form by hand. The geolocation button needs JavaScript.